Location: Waldport
(44.4270°N, 124.0680°W)
Time: 00:26:41
(UTC-08:00)

Amateur Radio Satellites - All Passes

Search period start: 28 February 2015 23:56
Search period end: 01 March 2015 23:56
Location: Waldport, 44.4270°N, 124.0680°W

Satellite Date Start Highest point End Downlink Frequencies (MHz)
Time Altitude Azimuth
UNISAT 6 01 Mar 00:02:11 00:05:43 25° 293° (WNW) 00:09:12 437.425
PCSat 01 Mar 00:04:50 00:06:57 12° 332° (NNW) 00:08:53 145.827
RS-15 01 Mar 00:12:13 00:23:06 83° 122° (ESE) 00:34:13 29.354- 29.394
NANOSAT C BR1 01 Mar 00:13:22 00:17:09 31° 291° (WNW) 00:20:51 145.865
SPROUT 01 Mar 00:21:18 00:25:16 33° 264° (W) 00:29:13 437.525
TIGRISAT 01 Mar 00:29:11 00:31:38 15° 297° (WNW) 00:33:56 435.000
TISAT 1 01 Mar 00:32:39 00:36:21 27° 266° (W) 00:40:01 437.305
DANDE 01 Mar 00:41:47 00:48:54 88° 277° (W) 00:54:13 436.750
ANTELSAT 01 Mar 00:42:42 00:44:00 11° 299° (WNW) 00:45:04 437.575/2403.000
QB50P1 01 Mar 00:46:38 00:49:16 16° 296° (WNW) 00:51:44 145.935-145.965
QB50P2 01 Mar 00:49:57 00:52:22 15° 297° (WNW) 00:54:37 145.880/145.840
SWISSCUBE 01 Mar 00:50:37 00:55:23 79° 74° (ENE) 01:00:12 437.505
BEESAT 3 01 Mar 00:57:32 00:59:56 15° 35° (NE) 01:02:25 437.485
BEESAT 01 Mar 00:59:37 01:04:24 89° 76° (ENE) 01:09:14 436.000
BUGSAT 1 01 Mar 01:07:59 01:09:53 13° 298° (WNW) 01:11:36 437.445
DUCHIFAT 1 01 Mar 01:08:24 01:09:04 10° 300° (WNW) 01:09:31 145.980
BEESAT 2 01 Mar 01:20:30 01:23:32 19° 39° (NE) 01:26:37 435.950
CUSAT 1 01 Mar 01:24:39 01:30:18 33° 286° (WNW) 01:34:41 437.405
ITUPSAT 1 01 Mar 01:25:56 01:30:36 53° 260° (W) 01:35:19 437.325
ITAMSAT 1 01 Mar 01:27:51 01:30:51 16° 88° (E) 01:34:04 435.822/435.867
Oscar 19 01 Mar 01:32:28 01:37:26 49° 99° (E) 01:42:25 437.125/150
KKS-1 01 Mar 01:42:26 01:46:46 49° 71° (ENE) 01:51:06 437.445
YUBILEINY 01 Mar 01:48:42 01:54:50 21° 58° (ENE) 02:01:20 435.215
STARS 01 Mar 01:53:23 01:57:33 42° 71° (ENE) 02:01:46 437.465
SO-50 01 Mar 02:01:06 02:05:27 43° 118° (ESE) 02:09:58 436.795
RS-15 01 Mar 02:26:50 02:36:51 38° 330° (NNW) 02:47:02 29.354- 29.394
Gurwin Techsat 1B 01 Mar 02:27:03 02:32:05 41° 97° (E) 02:37:06 435.225
DANDE 01 Mar 02:29:14 02:32:38 14° 294° (WNW) 02:35:21 436.750
SWISSCUBE 01 Mar 02:31:58 02:33:58 12° 274° (W) 02:35:40 437.505
AO-7 01 Mar 02:33:36 02:34:49 11° 81° (E) 02:36:49 29.400- 29.500
BEESAT 3 01 Mar 02:34:31 02:38:41 90° 31° (NNE) 02:42:47 437.485
BEESAT 01 Mar 02:42:03 02:43:03 10° 275° (W) 02:43:45 436.000
MOZHAYETS 4 01 Mar 02:43:15 02:44:54 12° 60° (ENE) 02:46:47
AIST 2 01 Mar 02:44:53 02:48:58 42° 48° (NE) 02:53:01 435.215
BEESAT 2 01 Mar 02:57:59 03:02:07 61° 239° (WSW) 03:06:10 435.950
M-CUBED/EXP-1 PRIME 01 Mar 03:01:42 03:04:43 34° 65° (ENE) 03:07:52 437.505
AUBIESAT-1 01 Mar 03:05:15 03:08:16 33° 65° (ENE) 03:11:25 437.475
ITAMSAT 1 01 Mar 03:05:45 03:10:59 70° 287° (WNW) 03:16:09 435.822/435.867
Oscar 19 01 Mar 03:12:29 03:16:31 23° 296° (WNW) 03:20:26 437.125/150
KKS-1 01 Mar 03:20:38 03:23:45 18° 270° (W) 03:26:41 437.445
STARS 01 Mar 03:30:55 03:34:15 20° 268° (W) 03:37:30 437.465
HORYU 2 01 Mar 03:34:34 03:38:54 49° 100° (E) 03:43:14 437.375
PCSat 01 Mar 03:39:20 03:39:32 10° 25° (NNE) 03:39:56 145.827
SO-50 01 Mar 03:42:02 03:46:09 30° 318° (NW) 03:50:23 436.795
YUBILEINY 01 Mar 03:44:18 03:53:13 88° 85° (E) 04:02:04 435.215
JAS-2 01 Mar 03:54:15 04:00:46 34° 93° (E) 04:07:48 435.910
Gurwin Techsat 1B 01 Mar 04:07:22 04:11:55 29° 295° (WNW) 04:16:22 435.225
MOZHAYETS 4 01 Mar 04:16:59 04:21:33 85° 260° (W) 04:26:09
AO-7 01 Mar 04:21:29 04:29:41 61° 103° (ESE) 04:37:51 29.400- 29.500
AIST 2 01 Mar 04:23:58 04:27:22 23° 246° (WSW) 04:30:38 435.215
PRISM 01 Mar 04:30:13 04:31:43 12° 61° (ENE) 04:33:23 437.425
CUBESAT XI-V 01 Mar 04:36:10 04:38:40 15° 62° (ENE) 04:41:21 437.345
M-CUBED/EXP-1 PRIME 01 Mar 04:38:07 04:39:57 14° 264° (W) 04:41:41 437.505
AUBIESAT-1 01 Mar 04:41:31 04:43:25 14° 264° (W) 04:45:15 437.475
RS-15 01 Mar 04:44:30 04:53:23 26° 3° (N) 05:02:35 29.354- 29.394
ITAMSAT 1 01 Mar 04:48:09 04:49:39 11° 304° (NW) 04:50:52 435.822/435.867
HORYU 2 01 Mar 05:12:07 05:15:15 19° 296° (WNW) 05:18:16 437.375
PCSat 01 Mar 05:19:42 05:24:42 36° 48° (NE) 05:29:42 145.827
STRAND 1 01 Mar 05:35:16 05:39:55 37° 68° (ENE) 05:44:39 437.568
JAS-2 01 Mar 05:38:59 05:46:04 56° 290° (WNW) 05:53:36 435.910
YUBILEINY 01 Mar 05:42:50 05:49:00 21° 281° (WNW) 05:54:46 435.215
PRISM 01 Mar 06:02:33 06:06:41 74° 257° (WSW) 06:10:53 437.425
CUBESAT XI-V 01 Mar 06:10:55 06:15:36 72° 259° (WSW) 06:20:20 437.345
AO-7 01 Mar 06:14:50 06:22:09 35° 303° (WNW) 06:29:19 29.400- 29.500
Cubesat XI-IV 01 Mar 06:19:06 06:24:18 48° 99° (E) 06:29:29 437.490
CUTE-I 01 Mar 06:28:32 06:33:51 58° 100° (E) 06:39:07 437.470
RS-15 01 Mar 06:59:00 07:09:37 44° 36° (NE) 07:20:47 29.354- 29.394
PCSat 01 Mar 07:03:09 07:08:10 38° 247° (WSW) 07:13:07 145.827
STRAND 1 01 Mar 07:14:40 07:19:12 30° 265° (W) 07:23:42 437.568
AIST 1 01 Mar 07:20:22 07:24:37 57° 95° (E) 07:28:58
JAS-2 01 Mar 07:26:46 07:29:54 13° 308° (NW) 07:32:43 435.910
HO-68 01 Mar 07:30:04 07:32:54 13° 84° (E) 07:36:14 435.675
BRITE-PL 01 Mar 07:36:24 07:38:11 12° 85° (E) 07:40:09 437.365/2234.400
GOMX 1 01 Mar 07:50:20 07:51:08 11° 84° (E) 07:52:12 467.674
GONETS M04 01 Mar 07:56:40 08:03:55 29° 64° (ENE) 08:11:24
Cubesat XI-IV 01 Mar 07:59:45 08:04:10 26° 296° (WNW) 08:08:26 437.490
CUTE-I 01 Mar 08:09:29 08:13:34 22° 298° (WNW) 08:17:30 437.470
COMPASS 1 01 Mar 08:12:14 08:13:46 12° 88° (E) 08:15:31 437.405
DOVE 4 01 Mar 08:30:53 08:34:01 20° 91° (E) 08:37:10 437.250
ANTELSAT 01 Mar 08:31:31 08:32:15 10° 61° (ENE) 08:33:12 437.575/2403.000
SEEDS 01 Mar 08:35:38 08:39:10 26° 94° (E) 08:42:47 437.485
CANX-2 01 Mar 08:36:03 08:39:57 34° 96° (E) 08:43:51 2200.000
O/OREOS (USA 219) 01 Mar 08:47:03 08:49:53 17° 101° (E) 08:52:54 437.305
CINEMA 3 01 Mar 08:50:53 08:53:38 17° 90° (E) 08:56:28 145.822/145.860
SO-50 01 Mar 08:51:18 08:54:08 15° 30° (NNE) 08:57:04 436.795
CUTE 1.7 + AOD 2 01 Mar 08:54:44 08:58:53 49° 99° (E) 09:03:02 437.475
AIST 1 01 Mar 09:00:19 09:02:48 14° 294° (WNW) 09:05:08
POLYITAN 1 01 Mar 09:08:28 09:10:45 15° 63° (ENE) 09:13:11 437.675
POPSAT HIP 1 01 Mar 09:09:46 09:12:04 15° 63° (ENE) 09:14:33 437.405
RS-15 01 Mar 09:11:36 09:22:57 71° 241° (WSW) 09:34:45 29.354- 29.394
BRITE-PL 01 Mar 09:12:48 09:17:28 67° 286° (WNW) 09:21:47 437.365/2234.400
HO-68 01 Mar 09:14:49 09:22:02 74° 104° (ESE) 09:29:14 435.675
CUBEBUG 2 01 Mar 09:21:45 09:24:51 21° 92° (E) 09:28:04 437.445
ISS 01 Mar 09:25:11 09:28:01 28° 139° (SE) 09:30:52 145.825
Oscar 11 01 Mar 09:25:34 09:29:26 32° 96° (E) 09:33:21 145.826/435.025
GOMX 1 01 Mar 09:25:35 09:30:04 73° 284° (WNW) 09:34:17 467.674
UNISAT 6 01 Mar 09:25:55 09:29:55 36° 70° (ENE) 09:33:56 437.425
DELFI C3 01 Mar 09:26:37 09:30:01 25° 94° (E) 09:33:27 145.870
NANOSAT C BR1 01 Mar 09:32:18 09:35:43 24° 67° (ENE) 09:39:12 145.865
AAUSAT CUBESAT 2 01 Mar 09:44:26 09:48:38 76° 285° (WNW) 09:52:49 437.432
COMPASS 1 01 Mar 09:45:49 09:49:59 64° 285° (WNW) 09:54:08 437.405
AISAT 01 Mar 09:45:58 09:46:33 10° 86° (E) 09:47:26 437.250
DX 1 01 Mar 09:47:19 09:50:58 26° 94° (E) 09:54:39 434.975-435.025
TIGRISAT 01 Mar 09:51:22 09:55:45 65° 74° (ENE) 10:00:03 435.000
GONETS M04 01 Mar 09:52:56 10:01:37 68° 266° (W) 10:10:16
VELOX 1 01 Mar 09:55:00 09:57:00 13° 88° (E) 09:59:12 145.980
QB50P1 01 Mar 10:03:53 10:08:02 51° 72° (ENE) 10:12:13 145.935-145.965
ANTELSAT 01 Mar 10:04:03 10:08:30 90° 345° (NNW) 10:12:52 437.575/2403.000
FUNcube-1 01 Mar 10:06:57 10:10:55 43° 98° (E) 10:14:53 145.935
QB50P2 01 Mar 10:07:07 10:11:19 56° 73° (ENE) 10:15:32 145.880/145.840
ZACube-1 01 Mar 10:07:37 10:11:36 44° 98° (E) 10:15:36 437.345
DOVE 4 01 Mar 10:08:01 10:12:03 37° 290° (WNW) 10:15:53 437.250
SEEDS 01 Mar 10:11:18 10:15:01 29° 291° (WNW) 10:18:39 437.485
CANX-2 01 Mar 10:12:20 10:15:45 23° 293° (WNW) 10:19:04 2200.000
UKube-1 01 Mar 10:18:26 10:22:42 52° 100° (E) 10:26:57 .
CUSAT 1 01 Mar 10:21:04 10:21:42 11° 66° (ENE) 10:22:26 437.405
BUGSAT 1 01 Mar 10:22:08 10:26:20 60° 74° (ENE) 10:30:35 437.445
HUMSAT D 01 Mar 10:23:00 10:26:46 34° 96° (E) 10:30:33 437.325/437.525
UWE-3 01 Mar 10:23:14 10:27:25 83° 103° (ESE) 10:31:35 435.000/436.395/437.385
DUCHIFAT 1 01 Mar 10:23:29 10:27:46 82° 76° (ENE) 10:32:04 145.980
O/OREOS (USA 219) 01 Mar 10:24:27 10:28:55 53° 298° (WNW) 10:33:27 437.305
CINEMA 3 01 Mar 10:27:09 10:31:09 42° 289° (WNW) 10:35:03 145.822/145.860
SO-50 01 Mar 10:30:46 10:35:41 64° 52° (NE) 10:40:35 436.795
CUTE 1.7 + AOD 2 01 Mar 10:31:41 10:34:29 17° 295° (WNW) 10:37:10 437.475
50 SAT 01 Mar 10:35:53 10:39:28 33° 96° (E) 10:43:05 437.505
POLYITAN 1 01 Mar 10:41:59 10:46:15 62° 259° (W) 10:50:31 437.675
POPSAT HIP 1 01 Mar 10:43:18 10:47:33 61° 259° (W) 10:51:49 437.405
CUBEBUG 2 01 Mar 10:57:56 11:01:44 35° 290° (WNW) 11:05:30 437.445
ISS 01 Mar 11:01:13 11:04:21 45° 337° (NNW) 11:07:29 145.825
DELFI C3 01 Mar 11:01:41 11:05:14 28° 291° (WNW) 11:08:43 145.870
Oscar 11 01 Mar 11:01:56 11:05:32 25° 292° (WNW) 11:09:04 145.826/435.025
UNISAT 6 01 Mar 11:03:19 11:06:52 23° 267° (W) 11:10:16 437.425
HO-68 01 Mar 11:03:29 11:09:12 26° 303° (WNW) 11:14:43 435.675
NANOSAT C BR1 01 Mar 11:07:33 11:11:28 33° 264° (W) 11:15:21 145.865
Oscar 19 01 Mar 11:15:19 11:17:23 13° 58° (ENE) 11:19:42 437.125/150
AISAT 01 Mar 11:19:23 11:23:53 81° 285° (WNW) 11:28:19 437.250
DX 1 01 Mar 11:23:21 11:27:16 32° 292° (WNW) 11:31:07 434.975-435.025
DANDE 01 Mar 11:23:48 11:26:37 70° 78° (ENE) 11:29:11 436.750
RS-15 01 Mar 11:26:42 11:33:40 17° 260° (W) 11:39:55 29.354- 29.394
CUBEBUG 1 01 Mar 11:28:05 11:32:27 55° 100° (E) 11:36:46 437.445
VELOX 1 01 Mar 11:29:41 11:34:07 65° 287° (WNW) 11:38:30 145.980
TIGRISAT 01 Mar 11:30:57 11:33:01 13° 272° (W) 11:34:51 435.000
ESTCUBE 1 01 Mar 11:39:33 11:44:09 80° 102° (ESE) 11:48:42 437.505/2401.250
QB50P1 01 Mar 11:41:34 11:44:16 16° 270° (W) 11:46:49 145.935-145.965
FUNcube-1 01 Mar 11:44:07 11:47:01 18° 295° (WNW) 11:49:47 145.935
ZACube-1 01 Mar 11:44:53 11:47:43 18° 295° (WNW) 11:50:25 437.345
QB50P2 01 Mar 11:45:13 11:47:39 14° 271° (W) 11:49:55 145.880/145.840
GONETS M04 01 Mar 11:53:03 11:56:58 13° 286° (WNW) 12:00:15
UKube-1 01 Mar 11:55:37 11:58:30 17° 297° (WNW) 12:01:16 .
HUMSAT D 01 Mar 11:59:13 12:02:24 22° 293° (WNW) 12:05:30 437.325/437.525
BUGSAT 1 01 Mar 12:00:04 12:02:17 13° 271° (W) 12:04:19 437.445
UWE-3 01 Mar 12:02:36 12:03:25 10° 299° (WNW) 12:04:01 435.000/436.395/437.385
CUSAT 1 01 Mar 12:02:47 12:04:39 17° 267° (W) 12:06:25 437.405
SPROUT 01 Mar 12:06:10 12:10:10 36° 97° (E) 12:14:08 437.525
50 SAT 01 Mar 12:11:19 12:14:20 21° 293° (WNW) 12:17:17 437.505
SO-50 01 Mar 12:12:20 12:15:51 19° 248° (WSW) 12:19:12 436.795
Gurwin Techsat 1B 01 Mar 12:13:59 12:15:50 12° 57° (ENE) 12:17:56 435.225
TISAT 1 01 Mar 12:15:14 12:19:15 40° 98° (E) 12:23:14 437.305
ISS 01 Mar 12:38:41 12:41:18 22° 356° (N) 12:43:57 145.825
ITAMSAT 1 01 Mar 12:46:57 12:51:22 29° 65° (ENE) 12:55:53 435.822/435.867
SWISSCUBE 01 Mar 12:50:25 12:53:39 18° 90° (E) 12:57:02 437.505
Oscar 19 01 Mar 12:50:54 12:56:03 84° 76° (ENE) 13:01:13 437.125/150
BEESAT 01 Mar 12:59:07 13:02:37 20° 91° (E) 13:06:15 436.000
CUBEBUG 1 01 Mar 13:05:34 13:08:26 17° 297° (WNW) 13:11:09 437.445
ESTCUBE 1 01 Mar 13:18:20 13:20:28 13° 299° (WNW) 13:22:24 437.505/2401.250
ITUPSAT 1 01 Mar 13:24:59 13:29:24 35° 96° (E) 13:33:50 437.325
AO-7 01 Mar 13:32:20 13:38:26 24° 51° (NE) 13:44:45 29.400- 29.500
SPROUT 01 Mar 13:42:41 13:46:05 22° 294° (WNW) 13:49:23 437.525
Gurwin Techsat 1B 01 Mar 13:49:43 13:55:01 76° 74° (ENE) 14:00:22 435.225
TISAT 1 01 Mar 13:51:41 13:54:50 20° 295° (WNW) 13:57:51 437.305
JAS-2 01 Mar 14:11:37 14:14:34 15° 54° (NE) 14:17:57 435.910
ISS 01 Mar 14:15:28 14:18:23 30° 16° (NNE) 14:21:20 145.825
ITAMSAT 1 01 Mar 14:25:53 14:30:46 39° 263° (W) 14:35:40 435.822/435.867
SWISSCUBE 01 Mar 14:27:12 14:31:55 54° 288° (WNW) 14:36:35 437.505
Oscar 19 01 Mar 14:33:54 14:36:11 12° 274° (W) 14:38:11 437.125/150
HORYU 2 01 Mar 14:34:30 14:38:50 56° 72° (ENE) 14:43:12 437.375
BEESAT 01 Mar 14:36:08 14:40:47 48° 289° (WNW) 14:45:22 436.000
YUBILEINY 01 Mar 14:53:51 14:59:36 21° 79° (E) 15:05:49 435.215
ITUPSAT 1 01 Mar 15:03:04 15:07:13 29° 294° (WNW) 15:11:18 437.325
KKS-1 01 Mar 15:08:21 15:12:50 81° 103° (ESE) 15:17:15 437.445
STARS 01 Mar 15:17:44 15:22:07 67° 102° (ESE) 15:26:29 437.465
AO-7 01 Mar 15:21:56 15:30:18 89° 79° (E) 15:38:42 29.400- 29.500
Gurwin Techsat 1B 01 Mar 15:32:38 15:35:42 15° 273° (W) 15:38:31 435.225
ISS 01 Mar 15:51:47 15:55:00 60° 215° (SW) 15:58:12 145.825
JAS-2 01 Mar 15:53:13 15:58:41 85° 76° (ENE) 16:04:52 435.910
Cubesat XI-IV 01 Mar 16:05:56 16:08:43 15° 58° (ENE) 16:11:44 437.490
MOZHAYETS 4 01 Mar 16:11:14 16:14:40 21° 91° (E) 16:18:13
HORYU 2 01 Mar 16:13:17 16:15:56 15° 270° (W) 16:18:25 437.375
CUTE-I 01 Mar 16:14:40 16:17:59 17° 60° (ENE) 16:21:29 437.470
M-CUBED/EXP-1 PRIME 01 Mar 16:15:33 16:19:07 27° 101° (E) 16:22:58 437.505
AUBIESAT-1 01 Mar 16:18:37 16:22:10 26° 101° (E) 16:25:57 437.475
BEESAT 3 01 Mar 16:32:52 16:33:52 11° 109° (ESE) 16:35:05 437.485
YUBILEINY 01 Mar 16:46:40 16:55:25 86° 277° (W) 17:04:17 435.215
KKS-1 01 Mar 16:47:03 16:48:55 12° 300° (WNW) 16:50:33 437.445
BEESAT 2 01 Mar 16:55:17 16:57:54 17° 112° (ESE) 17:00:39 435.950
STARS 01 Mar 16:55:44 16:58:07 14° 298° (WNW) 17:00:20 437.465
AO-7 01 Mar 17:18:20 17:24:19 20° 272° (W) 17:29:56 29.400- 29.500
AIST 1 01 Mar 17:26:43 17:29:44 18° 68° (ENE) 17:32:52
JAS-2 01 Mar 17:42:11 17:45:01 13° 278° (W) 17:47:38 435.910
Cubesat XI-IV 01 Mar 17:42:47 17:48:09 89° 239° (WSW) 17:53:36 437.490
PRISM 01 Mar 17:45:07 17:47:18 14° 89° (E) 17:49:40 437.425
MOZHAYETS 4 01 Mar 17:47:44 17:52:09 44° 289° (WNW) 17:56:32
M-CUBED/EXP-1 PRIME 01 Mar 17:50:19 17:54:04 33° 295° (WNW) 17:58:01 437.505
CUTE-I 01 Mar 17:52:08 17:57:30 76° 256° (WSW) 18:02:56 437.470
AUBIESAT-1 01 Mar 17:53:16 17:57:03 34° 295° (WNW) 18:01:03 437.475
HO-68 01 Mar 18:01:44 18:05:12 15° 49° (NE) 18:09:00 435.675
CUBESAT XI-V 01 Mar 18:06:34 18:10:29 26° 93° (E) 18:14:27 437.345
BEESAT 3 01 Mar 18:07:18 18:11:24 80° 305° (NW) 18:15:35 437.485
AIST 2 01 Mar 18:22:37 18:26:43 51° 120° (ESE) 18:30:55 435.215
PHONESAT 2.4 01 Mar 18:24:58 18:27:09 15° 153° (SSE) 18:29:24 2401.200-2431.200
VERMONT LUNAR 01 Mar 18:28:21 18:31:13 24° 160° (SSE) 18:34:07 437.305
BEESAT 2 01 Mar 18:31:39 18:35:43 54° 309° (NW) 18:39:50 435.950
BRITE-PL 01 Mar 18:47:02 18:51:21 24° 65° (ENE) 18:55:40 437.365/2234.400
YUBILEINY 01 Mar 18:47:33 18:53:51 20° 303° (WNW) 18:59:50 435.215
O/OREOS (USA 219) 01 Mar 18:53:34 18:57:59 43° 60° (ENE) 19:02:22 437.305
GOMX 1 01 Mar 18:58:08 19:01:52 20° 65° (ENE) 19:05:38 467.674
AIST 1 01 Mar 19:03:29 19:07:43 44° 267° (W) 19:11:53
COMPASS 1 01 Mar 19:06:23 19:07:38 11° 62° (ENE) 19:09:05 437.405
PRISM 01 Mar 19:19:03 19:23:13 55° 288° (WNW) 19:27:21 437.425
STRAND 1 01 Mar 19:22:38 19:27:50 81° 105° (ESE) 19:32:59 437.568
Cubesat XI-IV 01 Mar 19:26:55 19:29:09 12° 275° (W) 19:31:03 437.490
SEEDS 01 Mar 19:29:51 19:33:09 24° 68° (ENE) 19:36:32 437.485
CANX-2 01 Mar 19:30:55 19:34:36 31° 70° (ENE) 19:38:21 2200.000
DOVE 4 01 Mar 19:37:19 19:41:44 30° 69° (ENE) 19:46:02 437.250
CUBESAT XI-V 01 Mar 19:43:42 19:48:03 36° 290° (WNW) 19:52:19 437.345
HO-68 01 Mar 19:44:43 19:51:44 65° 69° (ENE) 19:58:50 435.675
BEESAT 3 01 Mar 19:47:58 19:50:14 14° 326° (NW) 19:52:24 437.485
CUTE 1.7 + AOD 2 01 Mar 19:49:20 19:53:19 44° 72° (ENE) 19:57:21 437.475
CINEMA 3 01 Mar 19:53:57 19:57:40 24° 67° (ENE) 20:01:21 145.822/145.860
PHONESAT 2.4 01 Mar 20:01:42 20:05:06 37° 169° (SSE) 20:08:29 2401.200-2431.200
AIST 2 01 Mar 20:02:09 20:05:37 23° 319° (NW) 20:09:04 435.215
PCSat 01 Mar 20:04:17 20:08:14 21° 108° (ESE) 20:12:21 145.827
VERMONT LUNAR 01 Mar 20:05:25 20:08:46 43° 177° (S) 20:12:05 437.305
BEESAT 2 01 Mar 20:13:40 20:14:53 11° 330° (NNW) 20:16:00 435.950
DELFI C3 01 Mar 20:16:47 20:19:46 21° 67° (ENE) 20:22:52 145.870
CUBEBUG 2 01 Mar 20:21:42 20:25:17 24° 67° (ENE) 20:28:52 437.445
Oscar 11 01 Mar 20:22:07 20:25:53 31° 69° (ENE) 20:29:43 145.826/435.025
BRITE-PL 01 Mar 20:23:59 20:29:33 56° 261° (W) 20:34:55 437.365/2234.400
O/OREOS (USA 219) 01 Mar 20:33:39 20:37:09 21° 257° (WSW) 20:40:30 437.305
GOMX 1 01 Mar 20:34:16 20:39:38 62° 260° (W) 20:44:46 467.674
AAUSAT CUBESAT 2 01 Mar 20:36:54 20:41:02 89° 81° (E) 20:45:13 437.432
COMPASS 1 01 Mar 20:38:40 20:42:49 76° 258° (WSW) 20:47:00 437.405
DX 1 01 Mar 20:44:35 20:48:21 29° 68° (ENE) 20:52:11 434.975-435.025
AISAT 01 Mar 20:45:02 20:47:11 14° 61° (ENE) 20:49:31 437.250
VELOX 1 01 Mar 20:54:25 20:57:07 16° 63° (ENE) 20:59:59 145.980
GONETS M04 01 Mar 21:00:50 21:07:52 30° 83° (E) 21:15:10
STRAND 1 01 Mar 21:03:26 21:06:26 15° 301° (WNW) 21:09:14 437.568
FUNcube-1 01 Mar 21:04:20 21:08:28 43° 72° (ENE) 21:12:33 145.935
SEEDS 01 Mar 21:05:04 21:08:52 32° 264° (W) 21:12:38 437.485
ZACube-1 01 Mar 21:05:10 21:09:20 45° 72° (ENE) 21:13:27 437.345
CANX-2 01 Mar 21:07:05 21:10:36 25° 267° (W) 21:14:03 2200.000
ESTCUBE 1 01 Mar 21:07:48 21:09:01 11° 59° (ENE) 21:10:28 437.505/2401.250
DOVE 4 01 Mar 21:14:40 21:19:26 36° 264° (W) 21:23:57 437.250
UKube-1 01 Mar 21:14:52 21:19:07 56° 73° (ENE) 21:23:26 .
HUMSAT D 01 Mar 21:16:45 21:20:27 31° 70° (ENE) 21:24:11 437.325/437.525
UWE-3 01 Mar 21:21:47 21:26:15 83° 76° (ENE) 21:30:37 435.000/436.395/437.385
50 SAT 01 Mar 21:24:32 21:27:51 26° 69° (ENE) 21:31:13 437.505
CUTE 1.7 + AOD 2 01 Mar 21:26:38 21:29:32 17° 270° (W) 21:32:18 437.475
CINEMA 3 01 Mar 21:30:09 21:34:43 41° 262° (W) 21:39:04 145.822/145.860
RS-15 01 Mar 21:32:13 21:36:46 14° 98° (E) 21:42:15 29.354- 29.394
HO-68 01 Mar 21:34:12 21:40:04 26° 269° (W) 21:45:46 435.675
PHONESAT 2.4 01 Mar 21:39:47 21:43:15 43° 186° (S) 21:46:42 2401.200-2431.200
VERMONT LUNAR 01 Mar 21:43:12 21:46:22 33° 194° (SSW) 21:49:32 437.305
TIGRISAT 01 Mar 21:43:50 21:44:56 11° 87° (E) 21:46:18 435.000
PCSat 01 Mar 21:45:54 21:51:15 60° 305° (NW) 21:56:40 145.827
DELFI C3 01 Mar 21:51:06 21:54:49 34° 264° (W) 21:58:32 145.870
ANTELSAT 01 Mar 21:55:38 21:58:12 16° 90° (E) 22:00:57 437.575/2403.000
CUBEBUG 2 01 Mar 21:57:41 22:01:53 35° 263° (W) 22:05:55 437.445
Oscar 11 01 Mar 21:58:29 22:02:07 25° 266° (W) 22:05:41 145.826/435.025
DUCHIFAT 1 01 Mar 22:09:10 22:10:30 11° 87° (E) 22:12:03 145.980
AISAT 01 Mar 22:18:46 22:23:17 73° 258° (WSW) 22:27:48 437.250
DX 1 01 Mar 22:20:43 22:24:35 29° 264° (W) 22:28:25 434.975-435.025
CUBEBUG 1 01 Mar 22:25:43 22:30:04 57° 73° (ENE) 22:34:27 437.445
POLYITAN 1 01 Mar 22:26:54 22:29:53 19° 91° (E) 22:32:58 437.675
POPSAT HIP 1 01 Mar 22:27:54 22:30:54 19° 92° (E) 22:34:00 437.405
VELOX 1 01 Mar 22:28:51 22:33:18 59° 259° (W) 22:37:46 145.980
ESTCUBE 1 01 Mar 22:40:43 22:45:15 88° 70° (ENE) 22:49:50 437.505/2401.250
FUNcube-1 01 Mar 22:41:56 22:45:04 18° 269° (W) 22:48:02 145.935
ZACube-1 01 Mar 22:42:55 22:45:59 18° 269° (W) 22:48:53 437.345
NANOSAT C BR1 01 Mar 22:50:53 22:54:42 33° 96° (E) 22:58:33 145.865
UNISAT 6 01 Mar 22:52:26 22:56:42 63° 101° (E) 23:00:59 437.425
HUMSAT D 01 Mar 22:52:51 22:56:19 24° 267° (W) 22:59:41 437.325/437.525
UKube-1 01 Mar 22:53:08 22:55:42 15° 270° (W) 22:58:07 .
GONETS M04 01 Mar 22:55:36 23:04:13 63° 284° (WNW) 23:12:50
DANDE 01 Mar 22:55:41 22:58:49 14° 91° (E) 23:01:56 436.750
50 SAT 01 Mar 22:59:27 23:02:51 26° 265° (W) 23:06:11 437.505
SPROUT 01 Mar 23:02:00 23:05:56 35° 70° (ENE) 23:09:56 437.525
TISAT 1 01 Mar 23:09:09 23:13:07 38° 71° (ENE) 23:17:08 437.305
TIGRISAT 01 Mar 23:18:01 23:22:17 71° 285° (WNW) 23:26:34 435.000
PHONESAT 2.4 01 Mar 23:18:25 23:21:18 22° 202° (SSW) 23:24:08 2401.200-2431.200
VERMONT LUNAR 01 Mar 23:22:10 23:23:43 12° 209° (SSW) 23:25:11 437.305
QB50P1 01 Mar 23:23:13 23:27:28 77° 102° (ESE) 23:31:41 145.935-145.965
QB50P2 01 Mar 23:26:44 23:31:00 85° 103° (ESE) 23:35:13 145.880/145.840
CUSAT 1 01 Mar 23:28:35 23:34:00 31° 96° (E) 23:38:23 437.405
ANTELSAT 01 Mar 23:31:12 23:35:22 50° 288° (WNW) 23:39:33 437.575/2403.000
PCSat 01 Mar 23:32:54 23:35:54 14° 328° (NNW) 23:38:46 145.827
BUGSAT 1 01 Mar 23:38:24 23:42:36 84° 103° (ESE) 23:46:43 437.445
DUCHIFAT 1 01 Mar 23:42:41 23:46:54 67° 286° (WNW) 23:51:04 145.980
